Time,TemperatureF,DewpointF,PressureIn,WindDirection,WindDirectionDegrees,WindSpeedMPH,WindSpeedGustMPH,Humidity,HourlyPrecipIn,Conditions,Clouds,dailyrainin,SolarRadiationWatts/m^2,SoftwareType,DateUTC
2013-04-26 00:02:00,36.0,18.0,-100.00,South,183,5.0,9.0,47,0.00,,,0.00,0.000000,,2013-04-26 05:02:00,
2013-04-26 00:32:00,35.0,16.0,-100.00,South,177,4.0,6.0,46,0.00,,,0.00,0.000000,,2013-04-26 05:32:00,
2013-04-26 00:42:00,35.0,16.0,-100.00,South,177,4.0,6.0,46,0.00,,,0.00,0.000000,,2013-04-26 05:42:00,
2013-04-26 00:52:00,35.0,16.0,-100.00,South,177,4.0,6.0,46,0.00,,,0.00,0.000000,,2013-04-26 05:52:00,
2013-04-26 01:02:00,35.0,16.0,-100.00,South,177,4.0,6.0,46,0.00,,,0.00,0.000000,,2013-04-26 06:02:00,
2013-04-26 01:22:00,33.0,21.0,-100.00,SSE,153,6.0,8.0,60,0.00,,,0.00,0.000000,,2013-04-26 06:22:00,
2013-04-26 01:32:00,33.0,21.0,-100.00,SSE,153,6.0,8.0,60,0.00,,,0.00,0.000000,,2013-04-26 06:32:00,
2013-04-26 01:42:00,33.0,21.0,-100.00,SSE,153,6.0,8.0,60,0.00,,,0.00,0.000000,,2013-04-26 06:42:00,
2013-04-26 01:52:00,33.0,21.0,-100.00,SSE,153,6.0,8.0,60,0.00,,,0.00,0.000000,,2013-04-26 06:52:00,
2013-04-26 02:01:00,33.0,21.0,-100.00,SSE,153,6.0,8.0,60,0.00,,,0.00,0.000000,,2013-04-26 07:01:00,
2013-04-26 02:32:00,35.0,20.0,-100.00,South,188,4.0,9.0,54,0.00,,,0.00,0.000000,,2013-04-26 07:32:00,
2013-04-26 02:42:00,35.0,20.0,-100.00,South,188,4.0,9.0,54,0.00,,,0.00,0.000000,,2013-04-26 07:42:00,
2013-04-26 02:52:00,35.0,20.0,-100.00,South,188,4.0,9.0,54,0.00,,,0.00,0.000000,,2013-04-26 07:52:00,
2013-04-26 03:02:00,35.0,20.0,-100.00,South,188,4.0,9.0,54,0.00,,,0.00,0.000000,,2013-04-26 08:02:00,
2013-04-26 03:32:00,35.0,19.0,-100.00,SSE,161,6.0,7.0,52,0.00,,,0.00,0.000000,,2013-04-26 08:32:00,
2013-04-26 03:42:00,35.0,19.0,-100.00,SSE,161,6.0,7.0,52,0.00,,,0.00,0.000000,,2013-04-26 08:42:00,
2013-04-26 03:52:00,35.0,19.0,-100.00,SSE,161,6.0,7.0,52,0.00,,,0.00,0.000000,,2013-04-26 08:52:00,
2013-04-26 04:01:00,35.0,19.0,-100.00,SSE,161,6.0,7.0,52,0.00,,,0.00,0.000000,,2013-04-26 09:01:00,
2013-04-26 04:22:00,37.0,22.0,-100.00,South,177,7.0,14.0,54,0.00,,,0.00,0.000000,,2013-04-26 09:22:00,
2013-04-26 04:33:00,37.0,22.0,-100.00,South,177,7.0,14.0,54,0.00,,,0.00,0.000000,,2013-04-26 09:33:00,
2013-04-26 04:43:00,37.0,22.0,-100.00,South,177,7.0,14.0,54,0.00,,,0.00,0.000000,,2013-04-26 09:43:00,
2013-04-26 04:53:00,37.0,22.0,-100.00,South,177,7.0,14.0,54,0.00,,,0.00,0.000000,,2013-04-26 09:53:00,
2013-04-26 05:03:00,37.0,22.0,-100.00,South,177,7.0,14.0,54,0.00,,,0.00,0.000000,,2013-04-26 10:03:00,
2013-04-26 05:33:00,38.0,30.0,-100.00,South,185,11.0,14.0,72,0.00,,,0.00,0.000000,,2013-04-26 10:33:00,
2013-04-26 05:42:00,38.0,30.0,-100.00,South,185,11.0,14.0,72,0.00,,,0.00,0.000000,,2013-04-26 10:42:00,
2013-04-26 05:52:00,38.0,30.0,-100.00,South,185,11.0,14.0,72,0.00,,,0.00,0.000000,,2013-04-26 10:52:00,
2013-04-26 06:02:00,38.0,30.0,-100.00,South,185,11.0,14.0,72,0.00,,,0.00,0.000000,,2013-04-26 11:02:00,
2013-04-26 06:22:00,39.0,31.0,-100.00,SSE,155,9.0,15.0,72,0.00,,,0.00,0.000000,,2013-04-26 11:22:00,
2013-04-26 06:32:00,39.0,31.0,-100.00,SSE,155,9.0,15.0,72,0.00,,,0.00,0.000000,,2013-04-26 11:32:00,
2013-04-26 06:42:00,39.0,31.0,-100.00,SSE,155,9.0,15.0,72,0.00,,,0.00,0.000000,,2013-04-26 11:42:00,
2013-04-26 06:52:00,39.0,31.0,-100.00,SSE,155,9.0,15.0,72,0.00,,,0.00,0.000000,,2013-04-26 11:52:00,
2013-04-26 07:01:00,39.0,31.0,-100.00,SSE,155,9.0,15.0,72,0.00,,,0.00,0.000000,,2013-04-26 12:01:00,
2013-04-26 07:32:00,40.0,29.0,-100.00,South,171,9.0,16.0,65,0.00,,,0.00,38.000000,,2013-04-26 12:32:00,
2013-04-26 07:42:00,40.0,29.0,-100.00,South,171,9.0,16.0,65,0.00,,,0.00,38.000000,,2013-04-26 12:42:00,
2013-04-26 07:52:00,40.0,29.0,-100.00,South,171,9.0,16.0,65,0.00,,,0.00,38.000000,,2013-04-26 12:52:00,
2013-04-26 08:01:00,40.0,29.0,-100.00,South,171,9.0,16.0,65,0.00,,,0.00,38.000000,,2013-04-26 13:01:00,
2013-04-26 08:32:00,43.0,32.0,-100.00,South,177,7.0,15.0,65,0.00,,,0.00,164.000000,,2013-04-26 13:32:00,
2013-04-26 08:42:00,43.0,32.0,-100.00,South,177,7.0,15.0,65,0.00,,,0.00,164.000000,,2013-04-26 13:42:00,
2013-04-26 08:52:00,43.0,32.0,-100.00,South,177,7.0,15.0,65,0.00,,,0.00,164.000000,,2013-04-26 13:52:00,
2013-04-26 09:01:00,43.0,32.0,-100.00,South,177,7.0,15.0,65,0.00,,,0.00,164.000000,,2013-04-26 14:01:00,
2013-04-26 09:32:00,46.0,32.0,-100.00,South,187,9.0,17.0,57,0.00,,,0.00,344.000000,,2013-04-26 14:32:00,
2013-04-26 09:42:00,46.0,32.0,-100.00,South,187,9.0,17.0,57,0.00,,,0.00,344.000000,,2013-04-26 14:42:00,
2013-04-26 09:52:00,46.0,32.0,-100.00,South,187,9.0,17.0,57,0.00,,,0.00,344.000000,,2013-04-26 14:52:00,
2013-04-26 10:01:00,46.0,32.0,-100.00,South,187,9.0,17.0,57,0.00,,,0.00,344.000000,,2013-04-26 15:01:00,
2013-04-26 10:33:00,49.0,32.0,-100.00,SW,222,9.0,19.0,51,0.00,,,0.00,585.000000,,2013-04-26 15:33:00,
2013-04-26 10:43:00,49.0,32.0,-100.00,SW,222,9.0,19.0,51,0.00,,,0.00,585.000000,,2013-04-26 15:43:00,
2013-04-26 10:53:00,49.0,32.0,-100.00,SW,222,9.0,19.0,51,0.00,,,0.00,585.000000,,2013-04-26 15:53:00,
2013-04-26 11:03:00,49.0,32.0,-100.00,SW,222,9.0,19.0,51,0.00,,,0.00,585.000000,,2013-04-26 16:03:00,
2013-04-26 11:33:00,52.0,32.0,-100.00,WSW,238,8.0,15.0,46,0.00,,,0.00,737.000000,,2013-04-26 16:33:00,
2013-04-26 11:42:00,52.0,32.0,-100.00,WSW,238,8.0,15.0,46,0.00,,,0.00,737.000000,,2013-04-26 16:42:00,
2013-04-26 11:53:00,52.0,32.0,-100.00,WSW,238,8.0,15.0,46,0.00,,,0.00,737.000000,,2013-04-26 16:53:00,
2013-04-26 12:02:00,52.0,32.0,-100.00,WSW,238,8.0,15.0,46,0.00,,,0.00,737.000000,,2013-04-26 17:02:00,
2013-04-26 12:32:00,55.0,33.0,-100.00,SW,227,6.0,11.0,44,0.00,,,0.00,899.000000,,2013-04-26 17:32:00,
2013-04-26 12:42:00,55.0,33.0,-100.00,SW,227,6.0,11.0,44,0.00,,,0.00,899.000000,,2013-04-26 17:42:00,
2013-04-26 12:52:00,55.0,33.0,-100.00,SW,227,6.0,11.0,44,0.00,,,0.00,899.000000,,2013-04-26 17:52:00,
2013-04-26 13:02:00,55.0,33.0,-100.00,SW,227,6.0,11.0,44,0.00,,,0.00,899.000000,,2013-04-26 18:02:00,
2013-04-26 13:22:00,58.0,33.0,-100.00,SW,215,5.0,12.0,39,0.00,,,0.00,966.000000,,2013-04-26 18:22:00,
2013-04-26 13:33:00,58.0,33.0,-100.00,SW,215,5.0,12.0,39,0.00,,,0.00,966.000000,,2013-04-26 18:33:00,
2013-04-26 13:42:00,58.0,33.0,-100.00,SW,215,5.0,12.0,39,0.00,,,0.00,966.000000,,2013-04-26 18:42:00,
2013-04-26 13:52:00,58.0,33.0,-100.00,SW,215,5.0,12.0,39,0.00,,,0.00,966.000000,,2013-04-26 18:52:00,
2013-04-26 14:01:00,58.0,33.0,-100.00,SW,215,5.0,12.0,39,0.00,,,0.00,966.000000,,2013-04-26 19:01:00,
2013-04-26 14:22:00,61.0,32.0,-100.00,SW,232,5.0,11.0,34,0.00,,,0.00,970.000000,,2013-04-26 19:22:00,
2013-04-26 14:32:00,61.0,32.0,-100.00,SW,232,5.0,11.0,34,0.00,,,0.00,970.000000,,2013-04-26 19:32:00,
2013-04-26 14:42:00,61.0,32.0,-100.00,SW,232,5.0,11.0,34,0.00,,,0.00,970.000000,,2013-04-26 19:42:00,
2013-04-26 14:52:00,61.0,32.0,-100.00,SW,232,5.0,11.0,34,0.00,,,0.00,970.000000,,2013-04-26 19:52:00,
2013-04-26 15:02:00,61.0,32.0,-100.00,SW,232,5.0,11.0,34,0.00,,,0.00,970.000000,,2013-04-26 20:02:00,
2013-04-26 15:32:00,62.0,33.0,-100.00,SW,227,8.0,14.0,33,0.00,,,0.00,916.000000,,2013-04-26 20:32:00,
2013-04-26 15:42:00,62.0,33.0,-100.00,SW,227,8.0,14.0,33,0.00,,,0.00,916.000000,,2013-04-26 20:42:00,
2013-04-26 15:52:00,62.0,33.0,-100.00,SW,227,8.0,14.0,33,0.00,,,0.00,916.000000,,2013-04-26 20:52:00,
2013-04-26 16:01:00,62.0,33.0,-100.00,SW,227,8.0,14.0,33,0.00,,,0.00,916.000000,,2013-04-26 21:01:00,
2013-04-26 16:22:00,63.0,32.0,-100.00,West,262,8.0,16.0,31,0.00,,,0.00,807.000000,,2013-04-26 21:22:00,
2013-04-26 16:33:00,63.0,32.0,-100.00,West,262,8.0,16.0,31,0.00,,,0.00,807.000000,,2013-04-26 21:33:00,
2013-04-26 16:42:00,63.0,32.0,-100.00,West,262,8.0,16.0,31,0.00,,,0.00,807.000000,,2013-04-26 21:42:00,
2013-04-26 16:53:00,63.0,32.0,-100.00,West,262,8.0,16.0,31,0.00,,,0.00,807.000000,,2013-04-26 21:53:00,
2013-04-26 17:02:00,63.0,32.0,-100.00,West,262,8.0,16.0,31,0.00,,,0.00,807.000000,,2013-04-26 22:02:00,
2013-04-26 17:23:00,63.0,28.0,-100.00,WNW,295,10.0,16.0,26,0.00,,,0.00,669.000000,,2013-04-26 22:23:00,
2013-04-26 17:33:00,63.0,28.0,-100.00,WNW,295,10.0,16.0,26,0.00,,,0.00,669.000000,,2013-04-26 22:33:00,
2013-04-26 17:42:00,63.0,28.0,-100.00,WNW,295,10.0,16.0,26,0.00,,,0.00,669.000000,,2013-04-26 22:42:00,
2013-04-26 17:52:00,63.0,28.0,-100.00,WNW,295,10.0,16.0,26,0.00,,,0.00,669.000000,,2013-04-26 22:52:00,
2013-04-26 18:02:00,63.0,28.0,-100.00,WNW,295,10.0,16.0,26,0.00,,,0.00,669.000000,,2013-04-26 23:02:00,
2013-04-26 18:22:00,63.0,29.0,-100.00,WNW,297,8.0,15.0,27,0.00,,,0.00,481.000000,,2013-04-26 23:22:00,
2013-04-26 18:32:00,63.0,29.0,-100.00,WNW,297,8.0,15.0,27,0.00,,,0.00,481.000000,,2013-04-26 23:32:00,
2013-04-26 18:42:00,63.0,29.0,-100.00,WNW,297,8.0,15.0,27,0.00,,,0.00,481.000000,,2013-04-26 23:42:00,
2013-04-26 18:52:00,63.0,29.0,-100.00,WNW,297,8.0,15.0,27,0.00,,,0.00,481.000000,,2013-04-26 23:52:00,
2013-04-26 19:01:00,63.0,29.0,-100.00,WNW,297,8.0,15.0,27,0.00,,,0.00,481.000000,,2013-04-27 00:01:00,
2013-04-26 19:32:00,62.0,29.0,-100.00,West,260,7.0,15.0,28,0.00,,,0.00,265.000000,,2013-04-27 00:32:00,
2013-04-26 19:42:00,62.0,29.0,-100.00,West,260,7.0,15.0,28,0.00,,,0.00,265.000000,,2013-04-27 00:42:00,
2013-04-26 19:52:00,62.0,29.0,-100.00,West,260,7.0,15.0,28,0.00,,,0.00,265.000000,,2013-04-27 00:52:00,
2013-04-26 20:01:00,62.0,29.0,-100.00,West,260,7.0,15.0,28,0.00,,,0.00,265.000000,,2013-04-27 01:01:00,
2013-04-26 20:21:00,58.0,28.0,-100.00,WSW,251,4.0,10.0,31,0.00,,,0.00,78.000000,,2013-04-27 01:21:00,
2013-04-26 20:32:00,58.0,28.0,-100.00,WSW,251,4.0,10.0,31,0.00,,,0.00,78.000000,,2013-04-27 01:32:00,
2013-04-26 20:42:00,58.0,28.0,-100.00,WSW,251,4.0,10.0,31,0.00,,,0.00,78.000000,,2013-04-27 01:42:00,
2013-04-26 20:52:00,58.0,28.0,-100.00,WSW,251,4.0,10.0,31,0.00,,,0.00,78.000000,,2013-04-27 01:52:00,
2013-04-26 21:01:00,58.0,28.0,-100.00,WSW,251,4.0,10.0,31,0.00,,,0.00,78.000000,,2013-04-27 02:01:00,
2013-04-26 21:32:00,45.0,28.0,-100.00,South,179,2.0,4.0,52,0.00,,,0.00,2.000000,,2013-04-27 02:32:00,
2013-04-26 21:42:00,45.0,28.0,-100.00,South,179,2.0,4.0,52,0.00,,,0.00,2.000000,,2013-04-27 02:42:00,
2013-04-26 21:52:00,45.0,28.0,-100.00,South,179,2.0,4.0,52,0.00,,,0.00,2.000000,,2013-04-27 02:52:00,
2013-04-26 22:02:00,45.0,28.0,-100.00,South,179,2.0,4.0,52,0.00,,,0.00,2.000000,,2013-04-27 03:02:00,
2013-04-26 22:33:00,38.0,26.0,-100.00,SSE,160,0.0,3.0,61,0.00,,,0.00,0.000000,,2013-04-27 03:33:00,
2013-04-26 22:43:00,38.0,26.0,-100.00,SSE,160,0.0,3.0,61,0.00,,,0.00,0.000000,,2013-04-27 03:43:00,
2013-04-26 22:53:00,38.0,26.0,-100.00,SSE,160,0.0,3.0,61,0.00,,,0.00,0.000000,,2013-04-27 03:53:00,
2013-04-26 23:02:00,38.0,26.0,-100.00,SSE,160,0.0,3.0,61,0.00,,,0.00,0.000000,,2013-04-27 04:02:00,
2013-04-26 23:23:00,37.0,27.0,-100.00,WSW,252,1.0,2.0,67,0.00,,,0.00,0.000000,,2013-04-27 04:23:00,
2013-04-26 23:33:00,37.0,27.0,-100.00,WSW,252,1.0,2.0,67,0.00,,,0.00,0.000000,,2013-04-27 04:33:00,
2013-04-26 23:43:00,37.0,27.0,-100.00,WSW,252,1.0,2.0,67,0.00,,,0.00,0.000000,,2013-04-27 04:43:00,
2013-04-26 23:53:00,37.0,27.0,-100.00,WSW,252,1.0,2.0,67,0.00,,,0.00,0.000000,,2013-04-27 04:53:00,